sat.trackr.live / text

‹ back to catalog

STARLINK-5246

NORAD 54198 · 2022-141AT

PAYLOAD ACTIVE UNKNOWN

§ Identity

Operator
Country
US
Launch date
2022-10-28
Launch site
AFWTR
Launch vehicle
Mass (kg)
RCS (m²)

Purposes: comms

External: N2YO · Heavens-Above · Gunter

§ Orbital elements

Epoch: 2026-05-24T22:56:04.344576Z

Period
95.44 min
Inclination
53.2134°
Eccentricity
0.0001170
Mean motion
15.08851939 rev/d
Perigee alt
538.9 km
Apogee alt
540.5 km
Semi-major
6,917.8 km
B*
-1.1305e-4
RAAN
11.5949°
Arg perigee
105.4724°
Mean anomaly
254.6398°
Rev number
19,751

§ Raw data

STARLINK-52461 54198U 22141AT  26144.95560584 -.00002087  00000+0 -11305-3 0  99972 54198  53.2134  11.5949 0001170 105.4724 254.6398 15.08851939197517

JSON: /api/v1/satellites/54198 · /tle

For live sub-satellite position, see the globe view (requires WebGL).

§ Visibility from observer

Set your observer location to see the next 7 days of passes ≥ 10°. The values pass through the URL so the page stays shareable.

No JS? Fill the form by hand. The geolocation button needs JavaScript.